TimeCST,TemperatureF,Dew PointF,Humidity,Sea Level PressureIn,VisibilityMPH,Wind Direction,Wind SpeedMPH,Gust SpeedMPH,PrecipitationIn,Events,Conditions,WindDirDegrees,DateUTC
12:15 AM,26.6,21.2,80,30.16,10.0,SE,9.2,-,N/A,,Clear,140,2013-01-10 06:15:00
12:35 AM,26.6,23.0,86,30.16,10.0,SSE,10.4,-,N/A,,Clear,150,2013-01-10 06:35:00
12:55 AM,26.6,23.0,86,30.16,10.0,SSE,10.4,-,N/A,,Clear,150,2013-01-10 06:55:00
2:15 AM,26.6,23.0,86,30.16,10.0,SE,9.2,-,N/A,,Clear,140,2013-01-10 08:15:00
2:35 AM,28.4,23.0,80,30.16,10.0,SSE,9.2,-,N/A,,Clear,150,2013-01-10 08:35:00
2:55 AM,28.4,23.0,80,30.16,10.0,SSE,10.4,-,N/A,,Clear,150,2013-01-10 08:55:00
3:15 AM,28.4,23.0,80,30.14,10.0,SSE,11.5,-,N/A,,Clear,150,2013-01-10 09:15:00
3:35 AM,28.4,23.0,80,30.15,10.0,SE,9.2,-,N/A,,Clear,140,2013-01-10 09:35:00
3:55 AM,28.4,23.0,80,30.14,10.0,SE,8.1,-,N/A,,Clear,140,2013-01-10 09:55:00
4:15 AM,30.2,24.8,80,30.13,10.0,SSE,9.2,-,N/A,,Clear,150,2013-01-10 10:15:00
4:35 AM,32.0,26.6,80,30.12,10.0,South,12.7,-,N/A,,Clear,170,2013-01-10 10:35:00
4:55 AM,32.0,26.6,80,30.12,10.0,South,12.7,-,N/A,,Clear,170,2013-01-10 10:55:00
5:15 AM,32.0,26.6,80,30.12,10.0,South,15.0,-,N/A,,Clear,180,2013-01-10 11:15:00
5:35 AM,30.2,26.6,86,30.11,10.0,SSE,11.5,-,N/A,,Clear,160,2013-01-10 11:35:00
5:55 AM,30.2,24.8,80,30.11,10.0,SSE,13.8,-,N/A,,Clear,160,2013-01-10 11:55:00
6:15 AM,30.2,24.8,80,30.11,10.0,SSE,12.7,-,N/A,,Clear,160,2013-01-10 12:15:00
6:35 AM,30.2,26.6,86,30.11,10.0,South,15.0,-,N/A,,Clear,170,2013-01-10 12:35:00
6:55 AM,32.0,26.6,80,30.11,10.0,South,13.8,-,N/A,,Clear,170,2013-01-10 12:55:00
7:15 AM,32.0,26.6,80,30.11,10.0,South,13.8,-,N/A,,Clear,170,2013-01-10 13:15:00
7:35 AM,30.2,26.6,86,30.11,10.0,SSE,12.7,-,N/A,,Clear,160,2013-01-10 13:35:00
7:55 AM,32.0,26.6,80,30.11,10.0,SSE,15.0,-,N/A,,Clear,160,2013-01-10 13:55:00
8:35 AM,30.2,24.8,80,30.11,10.0,SSE,15.0,-,N/A,,Clear,160,2013-01-10 14:35:00
8:55 AM,30.2,24.8,80,30.11,10.0,SSE,13.8,-,N/A,,Clear,160,2013-01-10 14:55:00
9:15 AM,30.2,24.8,80,30.11,10.0,SSE,12.7,-,N/A,,Clear,160,2013-01-10 15:15:00
9:55 AM,32.0,24.8,75,30.11,10.0,SSE,11.5,-,N/A,,Clear,160,2013-01-10 15:55:00
10:15 AM,33.8,24.8,70,30.10,10.0,SSE,9.2,-,N/A,,Clear,160,2013-01-10 16:15:00
10:35 AM,33.8,26.6,75,30.09,10.0,SSE,11.5,-,N/A,,Clear,160,2013-01-10 16:35:00
10:55 AM,35.6,24.8,65,30.08,10.0,South,18.4,-,N/A,,Clear,170,2013-01-10 16:55:00
11:15 AM,35.6,26.6,70,30.05,10.0,SSE,17.3,-,N/A,,Clear,160,2013-01-10 17:15:00
11:35 AM,35.6,26.6,70,30.04,10.0,SSE,15.0,20.7,N/A,,Clear,160,2013-01-10 17:35:00
11:55 AM,35.6,24.8,65,30.03,10.0,SSE,12.7,-,N/A,,Clear,160,2013-01-10 17:55:00
12:15 PM,35.6,24.8,65,30.01,10.0,SSE,13.8,-,N/A,,Clear,160,2013-01-10 18:15:00
12:35 PM,35.6,24.8,65,29.99,10.0,SSE,12.7,-,N/A,,Clear,160,2013-01-10 18:35:00
12:55 PM,35.6,24.8,65,29.98,10.0,SE,11.5,-,N/A,,Clear,140,2013-01-10 18:55:00
1:15 PM,33.8,23.0,65,29.97,10.0,SSE,10.4,-,N/A,,Clear,150,2013-01-10 19:15:00
1:35 PM,33.8,23.0,65,29.96,10.0,SSE,11.5,-,N/A,,Clear,150,2013-01-10 19:35:00
1:55 PM,33.8,23.0,65,29.94,10.0,SE,9.2,-,N/A,,Clear,140,2013-01-10 19:55:00
2:15 PM,33.8,23.0,65,29.95,10.0,SSE,15.0,19.6,N/A,,Clear,150,2013-01-10 20:15:00
2:35 PM,33.8,23.0,65,29.95,10.0,SSE,11.5,17.3,N/A,,Clear,150,2013-01-10 20:35:00
2:55 PM,33.8,23.0,65,29.94,10.0,SE,8.1,-,N/A,,Clear,140,2013-01-10 20:55:00
3:15 PM,33.8,24.8,70,29.94,10.0,SE,11.5,-,N/A,,Clear,140,2013-01-10 21:15:00
3:35 PM,35.6,23.0,60,29.94,10.0,SE,10.4,17.3,N/A,,Clear,140,2013-01-10 21:35:00
3:55 PM,33.8,24.8,70,29.92,10.0,SE,12.7,-,N/A,,Light Drizzle,140,2013-01-10 21:55:00
4:15 PM,33.8,24.8,70,29.91,10.0,SE,11.5,-,N/A,Rain,Light Rain,140,2013-01-10 22:15:00
4:35 PM,33.8,26.6,75,29.90,5.0,SE,11.5,-,N/A,Rain,Rain,140,2013-01-10 22:35:00
4:55 PM,33.8,28.4,81,29.89,7.0,SE,6.9,-,N/A,Rain,Rain,130,2013-01-10 22:55:00
5:15 PM,32.0,28.4,87,29.87,10.0,ESE,8.1,-,N/A,Rain,Light Rain,120,2013-01-10 23:15:00
5:35 PM,32.0,28.4,87,29.85,10.0,ESE,11.5,-,N/A,,Drizzle,120,2013-01-10 23:35:00
5:55 PM,32.0,28.4,87,29.84,10.0,ESE,11.5,-,N/A,Rain,Light Rain,120,2013-01-10 23:55:00
6:15 PM,33.8,26.6,75,29.83,7.0,ESE,16.1,-,0.01,Rain,Rain,120,2013-01-11 00:15:00
6:35 PM,32.0,28.4,87,29.81,10.0,SE,12.7,-,0.01,Rain,Rain,130,2013-01-11 00:35:00
6:55 PM,32.0,28.4,87,29.79,7.0,SE,15.0,-,0.01,Rain,Light Rain,130,2013-01-11 00:55:00
7:15 PM,32.0,30.2,93,29.78,7.0,ESE,16.1,-,0.01,Rain,Light Rain,120,2013-01-11 01:15:00
7:35 PM,32.0,30.2,93,29.77,7.0,SE,17.3,21.9,0.01,,Overcast,130,2013-01-11 01:35:00
7:55 PM,32.0,30.2,93,29.75,7.0,SE,17.3,-,0.01,Snow,Light Snow,130,2013-01-11 01:55:00
8:15 PM,32.0,32.0,100,29.75,5.0,SE,18.4,24.2,N/A,Snow,Light Snow,130,2013-01-11 02:15:00
8:35 PM,32.0,32.0,100,29.74,5.0,SE,16.1,23.0,0.01,Snow,Light Snow,140,2013-01-11 02:35:00
8:55 PM,32.0,32.0,100,29.73,5.0,SE,13.8,19.6,0.02,Snow,Light Snow,140,2013-01-11 02:55:00
9:15 PM,32.0,32.0,100,29.72,3.0,SSE,15.0,-,N/A,,Overcast,150,2013-01-11 03:15:00
9:35 PM,32.0,32.0,100,29.71,2.0,SE,16.1,-,N/A,,Overcast,140,2013-01-11 03:35:00
9:55 PM,32.0,32.0,100,29.69,2.5,SE,12.7,-,N/A,,Overcast,140,2013-01-11 03:55:00
10:15 PM,32.0,32.0,100,29.69,2.5,SE,12.7,-,N/A,,Drizzle,140,2013-01-11 04:15:00
10:35 PM,32.0,32.0,100,29.68,2.5,SE,13.8,-,N/A,,Overcast,140,2013-01-11 04:35:00
10:55 PM,32.0,32.0,100,29.66,2.5,SSE,13.8,-,N/A,,Overcast,150,2013-01-11 04:55:00
11:15 PM,32.0,32.0,100,29.66,2.0,SSE,15.0,-,N/A,Snow,Light Snow,150,2013-01-11 05:15:00
11:55 PM,32.0,32.0,100,29.63,2.0,SSE,11.5,-,N/A,Rain,Light Rain,150,2013-01-11 05:55:00